Hourly Data Report for September 23, 2017

All times are specified in Local Standard Time (LST). Add 1 hour to adjust for Daylight Saving Time where and when it is observed.

BATHURST A
NEW BRUNSWICK

47°37'47.000" N
65°44'20.000" W
58.80 m
8100505
71574
ZBF

Download Data

Hourly Data (September 2017)
Hourly Data Report for September 23, 2017
Temp Definition
°C
Dew Point Temp Definition
°C
Rel Hum Definition
%
Wind Dir Definition
10's deg

Wind Spd Definition
km/h
Visibility Definition
km
Stn Press Definition
kPa
Hmdx Definition


Wind Chill Definition


Weather Definition


TIME
00:00 Legend Double Dagger 10.4 9.2 92 21 3 24.1 100.98     LegendNANA
01:00 Legend Double Dagger 9.7 8.8 94 23 4 24.1 100.97     LegendNANA
02:00 Legend Double Dagger 9.5 8.7 95 21 5 24.1 100.86     Clear
03:00 Legend Double Dagger 9.6 8.9 95 36 3 19.3 100.81     LegendNANA
04:00 Legend Double Dagger 9.2 8.1 93 36 2 19.3 100.75     LegendNANA
05:00 Legend Double Dagger 8.5 7.8 95 24 3 24.1 100.71     Clear
06:00 Legend Double Dagger 8.6 7.9 95 28 4 24.1 100.63     LegendNANA
07:00 Legend Double Dagger 9.3 8.2 92 36 2 24.1 100.61     LegendNANA
08:00 Legend Double Dagger 12.5 9.6 82 19 7 24.1 100.52     Mostly Cloudy
09:00 Legend Double Dagger 16.2 10.7 69 36 2 24.1 100.51     LegendNANA
10:00 Legend Double Dagger 23.7 11.0 44 27 19 24.1 100.54 25   LegendNANA
11:00 Legend Double Dagger 25.0 13.2 47 29 23 24.1 100.48 28   Mainly Clear
12:00 Legend Double Dagger 26.1 15.0 50 26 18 24.1 100.49 30   LegendNANA
13:00 Legend Double Dagger 27.4 15.6 48 27 19 24.1 100.47 32   LegendNANA
14:00 Legend Double Dagger 27.6 15.6 47 29 15 24.1 100.47 32   Mainly Clear
15:00 Legend Double Dagger 27.9 14.9 44 31 11 24.1 100.47 32   LegendNANA
16:00 Legend Double Dagger 27.1 13.1 42 32 14 24.1 100.54 30   LegendNANA
17:00 Legend Double Dagger 25.7 11.4 40 35 10 24.1 100.60 28   Mostly Cloudy
18:00 Legend Double Dagger 23.4 11.2 46 33 8 24.1 100.68 25   LegendNANA
19:00 Legend Double Dagger 17.2 12.3 73 36 2 24.1 100.83     LegendNANA
20:00 Legend Double Dagger 17.5 11.3 67 35 5 24.1 100.91     Clear
21:00 Legend Double Dagger 13.7 11.0 83 36 2 24.1 100.99     LegendNANA
22:00 Legend Double Dagger 12.3 10.8 90 25 7 24.1 101.01     LegendNANA
23:00 Legend Double Dagger 12.2 10.2 88 25 5 24.1 101.09     Mainly Clear

Notes on Data Quality.

Legend

  • E = Estimated
  • M = Missing
  • NA = Not Available
  • ‡ = Partner data that is not subject to review by the National Climate Archives
Date modified: